Date String (YYYY-MM-DD hh:mm:ss) UTC,Instrument flags,Ambient pressure (hPa),Sample flow (lpm),Bypass flow (lpm),Sample temperature (°C),Ambient temperature (°C),ASC tube jacket temperature (°C),LED temperature (°C),Box temperature (°C),Sample RH (%),Span deviation,Mass concentration (μg/m³),Mass concentration (μg/m³),Mass concentration (μg/m³)
DateTimeUTC,F1_M11,P_M11,Q1_M11,Q2_M11,T1_M11,T2_M11,T3_M11,T4_M11,T5_M11,U1_M11,ZSPAN_M11,X0_M11,X2_M11,X1_M11
2023-02-14 20:00:00,,0802.7,5.01,0.00,21.8,20.1,00.0,30.8,23.5,07.7,0000.0,0007.58,0002.66,0002.15
2023-02-14 20:01:00,,0802.6,5.01,0.00,21.8,20.1,00.0,30.8,23.5,07.9,0000.0,0007.76,0002.75,0002.17
2023-02-14 20:02:00,,0802.7,5.01,0.00,21.8,20.1,00.0,30.8,23.5,07.6,0000.0,0008.02,0002.75,0002.18
2023-02-14 20:03:00,,0802.7,5.00,0.00,21.8,20.1,00.0,30.8,23.5,07.4,0000.0,0007.97,0002.71,0002.19
2023-02-14 20:04:00,,0802.6,5.00,0.00,21.8,20.1,00.0,30.8,23.4,07.8,0000.0,0007.31,0002.66,0002.18
2023-02-14 20:05:00,,0802.3,5.00,0.00,21.8,20.1,00.0,30.7,23.4,07.9,0000.0,0006.95,0002.67,0002.18
2023-02-14 20:06:00,,0802.2,5.00,0.00,21.8,20.1,00.0,30.7,23.4,07.7,0000.0,0006.39,0002.71,0002.18
2023-02-14 20:07:00,,0802.5,5.02,0.00,21.8,20.9,00.0,30.7,23.7,07.6,0000.0,0006.55,0002.76,0002.17
2023-02-14 20:08:00,,0802.7,4.97,0.00,21.9,22.2,00.0,30.6,24.0,07.4,0000.0,0005.00,0002.70,0002.17
2023-02-14 20:09:00,,0802.6,5.04,0.00,22.1,22.7,00.0,30.7,24.2,07.4,0000.0,0004.87,0002.67,0002.16
2023-02-14 20:10:00,,0802.8,5.01,0.00,22.1,22.3,00.0,30.8,24.2,07.5,0000.0,0004.81,0002.65,0002.14
2023-02-14 20:11:00,,0802.9,5.01,0.00,22.2,21.8,00.0,30.8,24.1,07.4,0000.0,0004.64,0002.62,0002.15
2023-02-14 20:12:00,,0802.9,4.95,0.00,22.1,21.4,00.0,30.9,24.0,07.5,0000.0,0004.36,0002.55,0002.14
2023-02-14 20:13:00,,0803.0,5.00,0.00,22.1,21.1,00.0,30.9,23.9,07.7,0000.0,0003.98,0002.55,0002.15
2023-02-14 20:14:00,,0802.9,5.01,0.00,22.1,20.8,00.0,30.9,23.9,07.7,0000.0,0003.97,0002.57,0002.15
2023-02-14 20:15:00,,0803.0,5.01,0.00,22.1,20.6,00.0,30.9,23.8,07.6,0000.0,0004.00,0002.55,0002.15
2023-02-14 20:16:00,,0803.1,5.01,0.00,22.1,20.5,00.0,30.9,23.8,07.4,0000.0,0004.23,0002.54,0002.15
2023-02-14 20:17:00,,0802.9,5.01,0.00,22.1,20.5,00.0,30.9,23.8,07.6,0000.0,0004.13,0002.51,0002.15
2023-02-14 20:18:00,,0802.9,5.00,0.00,22.0,20.4,00.0,30.9,23.8,07.9,0000.0,0003.93,0002.45,0002.15
2023-02-14 20:19:00,,0803.0,5.00,0.00,22.0,20.4,00.0,30.9,23.8,07.6,0000.0,0003.95,0002.47,0002.15
2023-02-14 20:20:00,,0803.1,5.01,0.00,22.0,20.4,00.0,30.9,23.8,07.6,0000.0,0003.80,0002.49,0002.16
2023-02-14 20:21:00,,0803.0,4.99,0.00,22.0,20.4,00.0,30.9,23.7,07.9,0000.0,0003.79,0002.48,0002.17
2023-02-14 20:22:00,,0802.9,5.00,0.00,22.0,20.4,00.0,30.9,23.7,07.7,0000.0,0004.06,0002.51,0002.19
2023-02-14 20:23:00,,0803.1,4.99,0.00,22.0,20.3,00.0,30.9,23.7,07.5,0000.0,0004.16,0002.56,0002.20
2023-02-14 20:24:00,,0803.0,5.01,0.00,21.9,20.3,00.0,30.9,23.6,07.8,0000.0,0004.08,0002.58,0002.20
2023-02-14 20:25:00,,0803.0,5.01,0.00,21.9,20.3,00.0,30.9,23.6,07.6,0000.0,0004.06,0002.57,0002.19
2023-02-14 20:26:00,,0803.1,4.98,0.00,21.9,20.3,00.0,30.9,23.6,07.5,0000.0,0004.46,0002.59,0002.19
2023-02-14 20:27:00,,0803.1,5.00,0.00,21.9,20.3,00.0,30.8,23.6,07.7,0000.0,0004.19,0002.60,0002.19
2023-02-14 20:28:00,,0803.0,5.01,0.00,21.9,20.3,00.0,30.8,23.6,07.8,0000.0,0004.14,0002.59,0002.20
2023-02-14 20:29:00,,0802.8,5.00,0.00,21.9,20.3,00.0,30.8,23.6,07.6,0000.0,0004.41,0002.64,0002.20
2023-02-14 20:30:00,,0802.9,5.00,0.00,21.9,20.2,00.0,30.8,23.6,07.4,0000.0,0004.63,0002.67,0002.21
2023-02-14 20:31:00,,0802.9,4.99,0.00,21.8,20.2,00.0,30.8,23.5,07.5,0000.0,0004.67,0002.66,0002.20
2023-02-14 20:32:00,,0802.7,5.00,0.00,21.8,20.1,00.0,30.8,23.5,07.2,0000.0,0004.95,0002.67,0002.18
2023-02-14 20:33:00,,0802.9,5.02,0.00,21.9,21.0,00.0,30.7,23.7,07.3,0000.0,0004.82,0002.67,0002.17
2023-02-14 20:34:00,,0802.9,4.99,0.00,22.0,22.2,00.0,30.7,24.1,07.2,0000.0,0004.85,0002.64,0002.17
2023-02-14 20:35:00,,0803.1,4.99,0.00,22.1,23.0,00.0,30.8,24.3,07.5,0000.0,0004.91,0002.61,0002.17
2023-02-14 20:36:00,,0802.9,5.03,0.00,22.2,22.7,00.0,30.8,24.3,07.4,0000.0,0005.06,0002.67,0002.17
2023-02-14 20:37:00,,0803.1,4.98,0.00,22.3,22.3,00.0,30.9,24.3,07.3,0000.0,0004.82,0002.72,0002.18
2023-02-14 20:38:00,,0803.2,5.00,0.00,22.3,21.9,00.0,31.0,24.2,07.2,0000.0,0004.88,0002.76,0002.19
2023-02-14 20:39:00,,0803.2,5.00,0.00,22.3,21.6,00.0,31.0,24.2,07.2,0000.0,0004.87,0002.75,0002.20
2023-02-14 20:40:00,,0803.2,5.00,0.00,22.3,21.4,00.0,31.0,24.1,07.4,0000.0,0004.76,0002.72,0002.18
2023-02-14 20:41:00,,0803.2,5.01,0.00,22.3,21.2,00.0,31.0,24.1,07.4,0000.0,0004.26,0002.60,0002.16
2023-02-14 20:42:00,,0803.1,5.00,0.00,22.3,21.1,00.0,31.0,24.0,07.4,0000.0,0004.22,0002.59,0002.14
2023-02-14 20:43:00,,0802.9,5.01,0.00,22.3,21.0,00.0,31.0,24.0,07.3,0000.0,0003.97,0002.57,0002.13
2023-02-14 20:44:00,,0803.0,5.01,0.00,22.3,20.9,00.0,31.1,24.0,07.4,0000.0,0005.12,0002.54,0002.12
2023-02-14 20:45:00,,0803.1,5.00,0.00,22.2,20.8,00.0,31.1,24.0,07.4,0000.0,0006.15,0002.51,0002.10
2023-02-14 20:46:00,,0803.2,5.02,0.00,22.2,20.7,00.0,31.1,23.9,07.2,0000.0,0006.74,0002.53,0002.08
2023-02-14 20:47:00,,0803.2,4.99,0.00,22.2,20.7,00.0,31.1,23.9,07.5,0000.0,0006.82,0002.48,0002.05
2023-02-14 20:48:00,,0803.2,5.00,0.00,22.2,20.7,00.0,31.1,23.9,07.5,0000.0,0006.78,0002.42,0002.03
2023-02-14 20:49:00,,0803.2,4.99,0.00,22.2,20.7,00.0,31.1,23.9,07.4,0000.0,0006.60,0002.34,0002.00
2023-02-14 20:50:00,,0803.1,5.00,0.00,22.2,20.7,00.0,31.0,23.9,07.2,0000.0,0007.30,0002.34,0001.97
2023-02-14 20:51:00,,0803.0,5.01,0.00,22.2,20.7,00.0,31.0,23.9,07.2,0000.0,0007.34,0002.33,0001.95
2023-02-14 20:52:00,,0803.1,5.00,0.00,22.2,20.7,00.0,31.0,23.9,07.3,0000.0,0007.45,0002.37,0001.95
2023-02-14 20:53:00,,0803.2,5.00,0.00,22.1,20.6,00.0,31.0,23.9,07.3,0000.0,0007.54,0002.39,0001.91
2023-02-14 20:54:00,,0803.3,5.00,0.00,22.1,20.6,00.0,31.0,23.8,07.2,0000.0,0007.69,0002.36,0001.90
2023-02-14 20:55:00,,0803.2,5.00,0.00,22.1,20.5,00.0,31.0,23.8,07.4,0000.0,0007.78,0002.37,0001.90
2023-02-14 20:56:00,,0803.3,5.00,0.00,22.1,20.5,00.0,31.0,23.8,07.5,0000.0,0006.94,0002.33,0001.88
2023-02-14 20:57:00,,0803.4,5.01,0.00,22.1,20.5,00.0,31.0,23.8,06.8,0000.0,0005.90,0002.27,0001.87
2023-02-14 20:58:00,,0803.1,5.00,0.00,22.1,20.6,00.0,31.0,23.8,07.0,0000.0,0005.78,0002.25,0001.85
2023-02-14 20:59:00,,0802.9,5.00,0.00,22.1,20.5,00.0,31.0,23.8,07.0,0000.0,0005.67,0002.24,0001.84
